Погода в Печоре

Погода в Печоре : погода сейчас, прогноз погоды и архив. Всё, что Вы хотите узнать о погоде в Печоре!

Хотите узнать прогноз погоды в Печоре? Тогда Вам сюда: Погода в Печоре

Поиск расширенной информации на нашем сайте:

Другие новости

Новости СМИ2

Главная страница сайта

Новости сайта

03.07.2017

Напоминаем, что на нашем специализированном сайте Метеоцентр.Азия вы можете получить высокодетализированные автоматические прогнозы погоды по пунктам России, СНГ и мира в авиационном формате (включающие направление и скорость ветра, видимость, явления погоды, количество и форму облачности, нижнюю и верхнюю границу облачности).

Рекомендуем: Подробное описание наружная реклама у нас.

Погода в Печоре - сегодня

Время (UTC), дата Ветер
(°,м/с) 
Видим.   Явления Облачность Т
(°С)
Тd
(°С)
f(%) Тe
(°С)
Pmin
(гПа)
dP
(гПа)
Po
(мм)
O2
(г/м3)
Тmin Tmax R s Состояние
почвы
18 19.11.17 230 (ЮЗ) 15000 м  {ливн. осадки}  10/10 570 м 
[Sc]
+0.5 -0.9 90 -2  1009  1.3  751  302           
21 19.11.17 200 (Ю) 9000 м  слаб. ливневой снег  9/9 720 м кучево-дожд. 
[Cb cap]
+0.1 -1.6 88 -2  1009.8  0.8  752  303           
00 20.11.17 300 (СЗ) 1900 м  слаб. ливневой снег  9/9 180 м кучево-дожд. 
[Cb cap]
-2.1 -3.3 91 -4  1011.2  1.4  753  306           
03 20.11.17 310 (СЗ) 15000 м  {ливн. осадки}  10/10 570 м 
[Sc]
-3.8 -6.3 83 -7  1012.8  1.4  754  309  -3.9    27  равномерный
сухой снег
100% 
06 20.11.17 210 (ЮЗ) 15000 м  {ливн. осадки}  9/9 630 м 
[Sc]
-4.7 -6.7 86 -6  1013.7  0.9  755  310  -4.7         
09 20.11.17 210 (ЮЗ) 15000 м    9/9 840 м 
[Sc]
-5.2 -7.3 85 -7  1014.5  0.8  755  311           
12 20.11.17 210 (ЮЗ) 15000 м    9/9 800 м 
[Sc]
-5.2 -7.3 85 -7  1015.1  0.6  756  311           
15 20.11.17 130 (ЮВ) 15000 м    4/4 600 м 
[Sc]
-7.8 -8.4 95 -8  1014.5  -0.7  755  314    -3.6       
18 20.11.17 110 (В) 1200 м  сильн. снег  10/8 300 м средняя 
[Frnb|As op]
-5.5 -6.6 92 -5  1013.1  -1.3  754  311           
21 20.11.17 060 (СВ) 1300 м  сильн. снег  10/8 180 м средняя 
[Frnb|As op]
-5 -6 93 -5  1011.1  -1.9  753  310           
00 21.11.17 070 (В) 1100 м  сильн. снег  10/8 210 м средняя 
[Frnb|As op]
-4.6 -5.5 93 -4  1009.6  -1.5  752  309           
03 21.11.17 310 (СЗ) 3600 м  снег  10/10 270 м 
[Frnb|Ns]
-4.6 -5.5 93 -4  1009.5  -0.1  752  309  -8.3    32  равномерный
сухой снег
100% 
06 21.11.17 320 (СЗ) 15000 м  {снег}  9/9 240 м 
[Sc]
-6.6 -7.4 94 -8  1011.7  2.2  753  312           
09 21.11.17 310 (СЗ) 15000 м    10/10 240 м 
[St]
-6 -7.1 92 -7  1015.1  3.3  756  312           
12 21.11.17 280 (З) 15000 м    10/10 270 м 
[St]
-5.7 -7.2 89 -7  1017.3  2.2  757  312           
15 21.11.17 340 (С) 15000 м    10/10 400 м 
[St]
-5.9 -7.4 89 -6  1018.3  758  313    -4.4  0.3     
18 21.11.17 360 (С) 15000 м    10/10 570 м 
[Sc]
-6.3 -7.5 91 -6  1018  -0.3  758  313           
21 21.11.17 350 (С) 15000 м    10/10 400 м 
[St]
-6.5 -7.7 91 -6  1018  758  314           
00 22.11.17 360 (С) 15000 м    10/10 300 м 
[St]
-6.8 -7.7 93 -8  1016.7  -1.3  757  314           
03 22.11.17 350 (С) 2300 м  снег  10/8 400 м средняя 
[Frnb|As op]
-6.6 -7.4 94 -8  1016.1  -0.6  756  313  -6.9    31  равномерный
сухой снег
100% 
09 22.11.17 350 (С) 15000 м  {снег}  10/8 660 м средняя 
[Sc|Ac und]
-7.7 -9.1 90 -9  1016.3  0.1  757  315           
12 22.11.17 010 (С) 15000 м  {снег}  10/10 720 м 
[Sc]
-9.6 -11.2 88 -11  1017.3  0.9  757  317           
15 22.11.17 360 (С) 5000 м  слаб. снег  10/8 720 м средняя 
[Sc|As op]
-11 -12.3 90 -13  1016.7  -0.6  757  319    -6.4  0.6     
18 22.11.17 030 (СВ) 1200 м  сильн. снег  10/10 120 м 
[Frnb|Ns]
-10.6 -12.6 85 -12  1016.4  -0.3  757  318           
21 22.11.17 360 (С) 1800 м  сильн. снег  10/10 120 м 
[Frnb|Ns]
-9.7 -11.4 87 -11  1015.6  -0.8  756  317           
Время (UTC), дата Ветер
(°,м/с) 
Видим.   Явления Облачность Т
(°С)
Тd
(°С)
f(%) Тe
(°С)
Pmin
(гПа)
dP
(гПа)
Po
(мм)
O2
(г/м3)
Тmin Tmax R s Состояние
почвы

Для получения пояснительной информации подведите курсор к названию столбца.

ПОГОДА в Печоре - архив

Всё, что Вы хотите узнать о погоде в Печоре - удобно и подробно!

Выберите нужную дату (начиная с 1 января 2015* года) и нажмите кнопку "Найти".
Будут отображены архивные сводки погоды по пункту Печора, начиная с указанной даты.


Отображать данные в формате CSV (для использования в таблицах Excel)


Внимание! Наш архив погоды предназначен исключительно для личного некоммерческого использования в познавательных целях. Если Вам необходимы официальные справки о состоянии погоды (для производственных, юридических, коммерческих и т.п. целей), обращайтесь в органы Росгидромета.

*Примечание: данная дата относится к архиву по метеостанциям СССР (Россия, СНГ, Балтия).
Архив по метеостанциям Зарубежной Европы и Азии (кроме Китая) хранится 10 дней, по другим регионам земного шара (Китай, Африка, Америка, Австралия, Океания) - 1 день.

Печора - район местоположения метеостанции


Название, широта, долгота, высота метеостанции:
Печора 65.1°ш. 57.1°д. 59 м над ур. моря [Российская Федерация]

Дополнительная информация

В oтличие oт бoльшинства пoгoдных сайтoв мы публикуем пoдрoбную метеoинфoрмацию в детальнoм прoфессиoнальнoм фoрмате.

Характеристики температуры и влажнoсти вoздуха измеряются на высoте 2 м в тени вдали oт зданий и деревьев.
Скoрoсть ветра измеряется на высoте 10 м (на урoвне рoста челoвека скoрoсть ветра ниже в 1.5-2 раза). Если метеoстанция нахoдится в гoрoде или в лесу, тo скoрoсть ветра занижена на 2-4 м/с пo сравнению с oткрытым местoм. Скoрoсть ветра над акватoриями крупных рек и oзёр, а также на вершинах хoлмoв на 2-5 м/с выше, чем в oбычных услoвиях.
Атмoсфернoе давление в разных тoчках местнoсти мoжет значительнo oтличаться oт давления на метеoстанции, в зависимoсти oт услoвий рельефа (при пoдъёме на 10 м давление пoнижается примернo на 1 мм рт.ст.).